Home   Weather   Kashgar   Past weeks

Flag for China Past Weather in Kashgar, Xinjiang, China — Yesterday and Last 2 Weeks

Now
81 °F

Passing clouds.


Feels Like: 80 °F
Forecast: 68 / 93 °F
Wind: 6 mph from North

Location: Kashi Airport

Current Time: Jul 26, 2017 at 3:08:18 pm

Latest Report: Jul 26, 2017 at 2:00 pm


Visibility: N/A

Pressure: 29.92 "Hg (25.81 "Hg at 1298m altitude)

Humidity: 39%

Dew Point: 54 °F

Location of KashgarLocation

Past Weather in Kashgar — Graph

°F

Kashgar Temperature Yesterday

Maximum temperature yesterday: 86 °F (at 6:00 pm)
Minimum temperature yesterday: 66 °F (at 7:00 am)
Average temperature yesterday: 76 °F

High & Low Weather Summary for the Past Weeks

 TemperatureHumidityPressure
High99 °F (Jul 11, 4:00 pm)83% (Jul 16, 6:00 am)30.04 "Hg (Jul 16, 6:00 am)
Low66 °F (Jul 16, 6:00 am)9% (Jul 11, 4:00 pm)29.65 "Hg (Jul 11, 6:00 pm)
Average78 °F40%29.88 "Hg
* Reported Jul 11 2:00 pm — Jul 26 2:00 pm, Kashgar. Weather by CustomWeather, © 2017

Note: Actual official high and low records may vary slightly from our data, if they occured in-between our weather recording intervals... More about our weather records

Advertising

Kashgar Weather History for the Previous 24 Hours

Scroll right to see more
 ConditionsComfort  
Time TempWeatherWind HumidityBarometerVisibility
2:00 pm
Wed, Jul 26
81 °FPassing clouds.6 mph39%29.92 "HgN/A
1:00 pm79 °FPassing clouds.6 mph45%29.92 "HgN/A
12:00 pm77 °FPassing clouds.6 mph51%29.92 "HgN/A
11:00 am73 °FPassing clouds.6 mph53%29.92 "HgN/A
10:00 am72 °FPassing clouds.3 mph57%29.95 "HgN/A
9:00 am68 °FPartly sunny.6 mph69%29.92 "HgN/A
8:00 am66 °FPartly sunny.8 mph73%29.95 "HgN/A
7:00 am68 °FPartly sunny.No wind69%29.95 "HgN/A
6:00 am66 °FScattered clouds.8 mph78%29.95 "HgN/A
5:00 am66 °FPassing clouds.10 mph78%29.98 "HgN/A
4:00 am68 °FSandstorm.6 mph69%29.98 "HgN/A
3:00 am70 °FPassing clouds.6 mph64%29.98 "HgN/A
2:00 am72 °FClear.10 mph61%29.95 "Hg10 mi
1:00 am75 °FSandstorm.13 mph47%29.95 "HgN/A
12:00 am75 °FPassing clouds.13 mph41%29.92 "HgN/A
11:00 pm
Tue, Jul 25
75 °FPassing clouds.13 mph47%29.89 "HgN/A
10:00 pm79 °FThunderstorms. Passing clouds.10 mph34%29.86 "HgN/A
9:00 pm84 °FPassing clouds.10 mph33%29.86 "HgN/A
8:00 pm84 °FPassing clouds.8 mph31%29.83 "HgN/A
7:00 pm86 °FPassing clouds.8 mph29%29.83 "HgN/A
6:00 pm86 °FPassing clouds.6 mph29%29.83 "HgN/A
5:00 pm84 °FPassing clouds.6 mph29%29.83 "HgN/A
4:00 pm84 °FPassing clouds.6 mph31%29.86 "HgN/A
3:00 pm82 °FPassing clouds.6 mph35%29.89 "HgN/A
Weather by CustomWeather, © 2017

See weather overviewHow to use our weather pages